Lapse_Rate
2.6 1.9 1.1 1.4 1.0 1.5 4.5 3.9 1.9 2.9 4.9 5.1 5.0 5.1 4.9 5.6 5.3 4.8 5.1 5.8 5.9 5.8
2.1 0.4 0.3 0.9 1.8 2.0 -0.9 2.1 2.6 1.2 0.6 3.1 5.0 5.1 4.6 4.1 5.1 5.3 5.3 5.5 5.8 5.9
1.7 1.0 0.4 -0.6 -0.9 -0.1 -0.2 -0.4 -0.6 -0.9 -1.0 -1.0 -0.4 2.5 4.9 5.0 5.3 5.2 5.3 5.6 5.3 5.5
2.4 0.8 0.9 0.4 -0.5 0.3 -1.4 -2.2 -2.1 -1.6 -2.2 -2.2 -2.6 -3.0 -1.6 -0.7 3.6 5.4 5.8 5.7 5.4 5.9
3.7 3.0 1.3 2.3 -0.5 0.2 -0.8 -0.7 -0.8 -2.2 -2.0 -2.8 -3.1 -3.2 -3.1 -1.9 -1.1 0.2 1.8 5.6 4.9 5.1
5.2 4.3 3.1 2.9 2.1 1.5 0.9 0.9 -0.0 -1.2 -1.5 -2.2 -2.6 -2.5 -2.1 -1.2 -0.4 -0.0 0.8 1.0 -0.4 3.8
6.2 6.1 5.0 3.4 2.5 1.7 1.4 0.9 1.2 0.1 -0.9 -0.7 -1.1 -0.9 -0.8 -0.2 -0.8 -1.4 -2.2 -1.8 -1.9 -1.0
5.9 6.7 6.8 4.5 4.4 3.6 1.7 2.2 1.4 1.3 0.3 -1.6 -1.1 -0.5 -1.0 -0.1 -1.1 -1.2 -1.2 -1.3 -2.0 -0.4
6.8 6.3 6.5 5.6 4.7 4.1 2.6 1.2 0.7 -0.1 -0.2 -1.5 -0.7 -1.0 -1.4 0.1 -0.0 -0.0 -0.5 -1.7 -2.4 -0.6
6.8 5.1 4.5 5.0 4.8 3.5 3.3 3.1 3.1 1.8 1.5 0.8 0.3 0.7 0.6 1.4 2.7 0.3 0.0 -1.9 -2.3 -1.7
4.2 3.4 4.1 3.7 3.5 3.5 2.7 3.4 3.4 2.9 2.4 2.2 2.1 1.3 1.0 1.6 1.8 1.6 1.4 0.7 0.4 -0.5
4.1 3.5 3.3 2.9 3.1 4.1 4.1 4.2 4.4 4.4 3.3 2.6 2.3 2.5 1.9 1.3 1.3 2.1 2.3 2.1 1.2 0.4
5.2 4.2 3.3 3.3 3.2 4.0 3.9 3.7 3.9 3.9 3.3 3.1 1.9 2.3 2.4 2.1 1.8 1.6 2.6 3.0 2.4 2.1
7.8 6.0 5.1 4.6 4.1 3.7 4.0 3.4 2.8 3.0 3.0 2.4 2.0 1.5 2.6 3.4 3.0 3.1 3.3 3.9 4.0 3.8
Wind_Speed
12 9 9 16 11 10 8 5 20 19 5 6 3 6 6 7 7 11 10 14 13 9
12 16 13 14 10 5 15 11 9 11 14 15 5 5 4 4 4 7 10 13 12 11
15 16 15 15 17 15 12 12 11 17 14 14 16 11 3 4 5 8 7 9 11 13
17 19 18 15 16 11 16 18 17 15 16 15 14 15 12 13 9 8 11 10 12 15
19 18 19 18 21 16 19 15 14 17 16 16 15 14 13 13 12 11 13 11 10 11
20 20 20 17 17 17 16 17 17 19 16 17 17 16 13 11 11 11 12 12 16 13
20 18 17 18 19 17 17 17 15 16 16 16 16 16 15 13 12 12 13 14 15 14
17 16 16 19 17 16 17 15 17 15 16 16 17 15 17 15 16 16 13 13 15 14
18 16 17 17 16 16 17 19 18 19 18 21 15 32 32 16 14 14 15 13 14 14
15 18 18 16 18 17 17 15 16 18 17 18 21 32 30 22 9 13 12 17 16 13
17 19 17 16 18 18 17 17 15 17 18 15 16 32 30 21 14 12 13 12 13 15
17 17 17 18 18 16 14 14 15 14 16 17 17 32 31 22 15 14 14 13 13 16
12 15 16 16 16 13 13 13 11 12 14 21 16 29 31 26 11 15 12 14 14 23
10 10 12 12 12 12 11 11 12 12 12 14 18 19 30 30 14 11 10 10 11 11
Wind_Direction
43 51 52 50 41 37 16 298 29 343 25 161 218 242 185 197 190 197 206 210 224 229
47 57 50 58 57 360 76 9 0 3 16 349 201 203 202 222 204 210 209 219 222 228
54 57 56 50 47 34 36 59 28 25 18 16 13 352 214 204 226 234 232 228 227 230
51 56 56 58 55 42 55 32 38 35 29 23 16 12 9 6 349 264 248 249 236 239
50 57 60 47 54 35 50 47 31 51 28 22 16 15 13 4 357 340 347 271 244 247
42 46 51 54 59 52 53 49 45 47 33 27 18 11 11 5 3 358 355 354 7 318
36 38 41 48 46 43 50 45 51 48 42 34 24 15 8 23 22 26 23 10 9 358
33 34 43 47 46 46 51 47 43 46 42 40 31 19 9 24 23 18 21 19 19 3
36 38 41 45 45 48 46 40 34 31 37 34 24 14 13 16 23 20 19 11 16 3
31 39 40 40 45 43 45 45 42 38 36 36 27 22 12 14 21 30 14 18 14 4
31 34 32 32 36 36 36 34 37 37 33 32 28 23 19 15 19 19 20 21 13 9
29 30 28 32 29 34 34 32 34 37 34 31 28 23 21 20 18 15 17 17 10 14
44 37 32 30 27 24 31 32 27 30 35 30 25 19 19 20 14 11 9 8 10 13
46 51 46 39 32 25 26 29 25 25 24 28 23 15 15 17 16 5 354 359 3 2